TimeCST,TemperatureF,Dew PointF,Humidity,Sea Level PressureIn,VisibilityMPH,Wind Direction,Wind SpeedMPH,Gust SpeedMPH,PrecipitationIn,Events,Conditions,WindDirDegrees,DateUTC
12:56 AM,32.0,26.1,79,30.03,10.0,WNW,3.5,-,N/A,,Overcast,300,2013-11-26 06:56:00
1:56 AM,32.0,26.1,79,30.03,10.0,NW,3.5,-,N/A,,Overcast,310,2013-11-26 07:56:00
2:56 AM,32.0,26.1,79,30.04,10.0,Calm,Calm,-,N/A,,Overcast,0,2013-11-26 08:56:00
3:56 AM,33.1,25.0,72,30.04,10.0,Calm,Calm,-,N/A,,Overcast,0,2013-11-26 09:56:00
4:56 AM,34.0,23.0,64,30.04,10.0,NW,13.8,-,N/A,,Overcast,320,2013-11-26 10:56:00
5:56 AM,32.0,21.9,66,30.05,10.0,WNW,9.2,-,N/A,,Overcast,300,2013-11-26 11:56:00
6:56 AM,30.9,19.9,64,30.07,10.0,WNW,8.1,-,N/A,,Overcast,290,2013-11-26 12:56:00
7:56 AM,30.9,19.0,61,30.08,10.0,WNW,8.1,-,N/A,,Overcast,300,2013-11-26 13:56:00
8:56 AM,30.9,19.9,64,30.08,10.0,NW,8.1,-,N/A,,Overcast,310,2013-11-26 14:56:00
9:53 AM,30.2,19.4,64,30.07,10.0,NW,11.5,-,N/A,,Overcast,310,2013-11-26 15:53:00
9:56 AM,30.9,19.9,64,30.08,10.0,NW,8.1,-,N/A,,Overcast,310,2013-11-26 15:56:00
10:25 AM,30.2,19.4,64,30.08,10.0,WNW,9.2,-,N/A,,Overcast,290,2013-11-26 16:25:00
10:56 AM,30.9,19.9,64,30.07,9.0,WNW,9.2,-,N/A,,Overcast,300,2013-11-26 16:56:00
11:14 AM,28.4,21.2,74,30.07,2.0,WNW,17.3,23.0,0.00,Snow,Light Snow,300,2013-11-26 17:14:00
11:19 AM,28.4,21.2,74,30.07,1.5,NNW,19.6,25.3,0.00,Snow,Light Snow,330,2013-11-26 17:19:00
11:36 AM,26.6,19.4,74,30.08,2.0,NW,12.7,26.5,0.00,Snow,Light Snow,320,2013-11-26 17:36:00
11:53 AM,28.4,19.4,69,30.08,5.0,NW,13.8,-,0.00,Snow,Light Snow,310,2013-11-26 17:53:00
11:56 AM,28.0,19.0,69,30.09,7.0,NW,15.0,20.7,0.00,Snow,Light Snow,310,2013-11-26 17:56:00
12:09 PM,28.4,17.6,64,30.08,10.0,WNW,17.3,23.0,0.00,,Overcast,290,2013-11-26 18:09:00
12:56 PM,28.0,12.9,53,30.10,10.0,NW,11.5,-,0.00,,Overcast,310,2013-11-26 18:56:00
1:56 PM,27.0,12.0,53,30.11,10.0,NW,19.6,24.2,N/A,,Overcast,320,2013-11-26 19:56:00
2:56 PM,25.0,6.1,45,30.14,10.0,NW,9.2,20.7,N/A,,Mostly Cloudy,310,2013-11-26 20:56:00
3:56 PM,23.0,3.9,44,30.17,10.0,NW,15.0,21.9,N/A,,Clear,320,2013-11-26 21:56:00
4:56 PM,21.0,3.0,46,30.20,10.0,NNW,9.2,-,N/A,,Clear,340,2013-11-26 22:56:00
5:56 PM,19.0,3.0,50,30.23,10.0,NNW,10.4,-,N/A,,Clear,330,2013-11-26 23:56:00
6:56 PM,18.0,3.0,52,30.25,10.0,NW,6.9,-,N/A,,Clear,320,2013-11-27 00:56:00
7:56 PM,18.0,1.9,50,30.26,10.0,NNW,9.2,-,N/A,,Clear,340,2013-11-27 01:56:00
8:56 PM,17.1,1.9,52,30.27,10.0,NNW,10.4,17.3,N/A,,Clear,330,2013-11-27 02:56:00
9:56 PM,16.0,1.9,54,30.27,10.0,NNW,9.2,-,N/A,,Clear,330,2013-11-27 03:56:00
10:56 PM,15.1,1.9,56,30.28,10.0,NNW,10.4,18.4,N/A,,Clear,330,2013-11-27 04:56:00
11:56 PM,15.1,1.0,54,30.29,10.0,NW,10.4,-,N/A,,Clear,320,2013-11-27 05:56:00